This is the latest recevied weather packets stored in our database for station/object K7NDG. If no packets are shown the sender has not sent any weather packets the latest 10 day(s).
| Time | Temp. | Humidity | Pressure | Rain* | Wind** | Luminosity | Snow |
|---|---|---|---|---|---|---|---|
| 1777918556 | 18.33° C | 69% | 1013.6 hPa | 0 mm | - | 673 W/m² | - |
| 1777918254 | 17.78° C | 72% | 1013.7 hPa | 0 mm | - | 374 W/m² | - |
| 1777917953 | 17.78° C | 72% | 1013.6 hPa | 0 mm | - | 331 W/m² | - |
| 1777917652 | 17.22° C | 73% | 1013.5 hPa | 0 mm | - | 394 W/m² | - |
| 1777917348 | 16.67° C | 74% | 1013.6 hPa | 0 mm | - | 399 W/m² | - |
| 1777917045 | 16.67° C | 74% | 1013.8 hPa | 0 mm | - | 228 W/m² | - |
| 1777916743 | 16.67° C | 74% | 1013.7 hPa | 0 mm | - | 212 W/m² | - |
| 1777916440 | 16.11° C | 75% | 1013.7 hPa | 0 mm | - | 264 W/m² | - |
| 1777916137 | 16.11° C | 75% | 1013.4 hPa | 0 mm | - | 241 W/m² | - |
| 1777915834 | 16.11° C | 75% | 1013.4 hPa | 0 mm | - | 247 W/m² | - |
| 1777915530 | 15.56° C | 75% | 1013.5 hPa | 0 mm | - | 201 W/m² | - |
| 1777915227 | 15.56° C | 77% | 1013.6 hPa | 0 mm | - | 188 W/m² | - |
| 1777914924 | 15.56° C | 76% | 1013.5 hPa | 0 mm | - | 212 W/m² | - |
| 1777914621 | 15.56° C | 77% | 1013.6 hPa | 0 mm | - | 206 W/m² | - |
| 1777914316 | 15° C | 78% | 1013.6 hPa | 0 mm | - | 228 W/m² | - |
| 1777914015 | 15° C | 79% | 1013.5 hPa | 0 mm | - | 157 W/m² | - |
| 1777913710 | 15° C | 78% | 1013.5 hPa | 0 mm | - | 148 W/m² | - |
| 1777913407 | 15° C | 79% | 1013.4 hPa | 0 mm | - | 130 W/m² | - |
| 1777913104 | 15° C | 80% | 1013.2 hPa | 0 mm | - | 121 W/m² | - |
| 1777912800 | 15° C | 80% | 1013.3 hPa | 0 mm | - | 110 W/m² | - |
| 1777912496 | 15° C | 81% | 1013.2 hPa | 0 mm | - | 99 W/m² | - |
| 1777912192 | 14.44° C | 81% | 1013.4 hPa | 0 mm | - | 97 W/m² | - |
| 1777911889 | 14.44° C | 81% | 1013.2 hPa | 0 mm | - | 88 W/m² | - |
| 1777911585 | 14.44° C | 82% | 1013.2 hPa | 0 mm | - | 100 W/m² | - |
| 1777911281 | 14.44° C | 82% | 1013.1 hPa | 0 mm | - | 97 W/m² | - |
* Rain latest hour (hover to see other rain measurements)
** Current wind speed in m/s (hover to see current wind gust speed)